UDYZ

Yerevan/Zvartnots International Airport

Airport
ICAO code
UDYZ
IATA Code
EVN
Summary
ICAO Region
APAC
ICAO Territory
Location

Zvartnots,

Serving
Yerevan
Elevation
2838 ft
Coordinates
40° 8' 50" N , 44° 23' 45" E
KCC
Metar
UDYZ 130300Z 31002KT 9999 NSC 06/03 Q1017 NOSIG

Description

Zvartnots International airport is located near Zvartnots, 10 km west of Yerevan, the capital city of Armenia.

Climatology

Cold Semi-arid climate (Köppen climate classification BSk). - Hot, sometimes extremely hot summers and cold, sometimes very cold winters. Some snowfall during the winter. Areas featuring cold semi-arid climates are sometimes subject to major temperature swings during a 24 hour period.

Runways

Designator Length Width Surface Rops
9/27 3849 56 ASP Yes/Yes

SKYbrary Partners:

Safety knowledge contributed by: